Wind_Speed
9 10 7 0 4 5 3 4 1 2 3 2 11 9 9 8 2 2 7 8 5 5 8 8 7 5 5 4 4 3 2 0 1 2 3 5 5 6 7 8 8 9 9 8 8 7 7 7 8
9 9 1 3 4 3 5 4 7 5 11 27 21 11 7 4 5 9 5 8 8 8 9 9 9 8 6 5 3 2 1 1 3 4 4 5 6 7 8 9 10 10 10 12 12 11 10 9 10
10 7 2 4 3 3 4 1 5 17 20 5 7 14 5 4 8 7 8 11 11 9 9 9 9 8 6 4 3 2 2 4 6 7 8 9 9 9 9 10 11 12 12 13 13 13 13 13 12
7 2 5 4 3 5 4 6 8 13 4 6 20 8 8 7 8 11 11 9 7 9 8 8 7 5 4 2 1 1 3 5 6 7 8 9 10 10 11 11 12 13 14 15 14 15 14 15 16
4 3 4 1 4 4 3 14 22 8 7 8 7 6 5 12 10 15 11 8 5 7 7 6 5 4 3 1 1 4 5 6 6 8 9 11 12 12 12 12 13 15 15 15 16 17 16 17 17
3 3 4 2 4 4 4 8 10 4 8 15 13 10 4 15 15 14 9 7 7 5 4 4 3 2 1 2 4 5 6 7 8 8 9 11 12 13 15 15 15 15 15 17 17 17 19 19 18
5 4 3 3 3 1 3 6 5 6 7 4 15 5 15 20 15 13 12 11 7 4 2 1 0 2 2 3 5 6 8 9 10 10 11 12 14 15 16 16 17 18 18 18 18 18 19 20 21
2 4 2 2 3 1 2 3 9 7 4 12 7 8 10 26 22 18 15 10 7 4 1 2 3 4 4 4 5 7 9 11 12 14 14 15 16 18 19 19 20 20 20 20 20 20 20 20 21
2 4 1 2 1 1 2 3 3 4 9 4 2 17 25 31 25 20 16 11 7 3 2 3 3 3 3 4 5 7 9 11 12 14 16 17 18 19 20 21 22 23 24 24 23 23 23 22 22
4 4 6 4 1 2 3 5 10 5 7 8 21 23 36 29 24 20 15 10 5 1 1 1 0 2 3 4 5 7 10 12 14 15 16 17 17 18 20 22 24 25 26 26 26 27 27 26 27
0 4 3 2 2 4 3 4 3 13 2 9 34 38 33 30 24 19 15 10 5 1 1 1 2 3 4 6 8 10 12 14 15 16 17 18 18 19 20 22 23 24 26 28 28 28 27 29 29
1 4 3 3 4 3 1 3 4 0 1 18 33 35 36 30 24 18 13 8 4 1 0 2 3 4 6 7 9 11 13 15 17 19 20 21 22 23 24 25 26 27 28 28 29 31 33 32 31
2 3 5 4 7 6 0 1 5 4 16 30 32 34 35 29 24 18 12 7 2 0 1 3 5 5 7 8 9 11 12 15 17 19 20 21 22 22 23 25 27 28 28 30 31 32 32 34 35
4 5 10 7 7 5 4 3 2 9 28 31 33 35 33 28 23 18 11 6 3 1 1 3 4 5 7 8 10 12 14 15 17 18 20 22 23 24 25 26 28 29 30 30 30 30 32 33 33
6 6 8 3 3 7 12 2 6 25 31 33 34 33 29 23 18 13 8 5 2 1 2 3 4 6 8 10 11 12 14 15 17 19 20 22 24 25 26 27 28 29 29 31 33 32 29 29 32
4 3 4 4 2 4 12 9 6 34 36 33 33 31 27 22 17 12 9 7 4 1 0 2 4 6 8 10 12 13 14 15 17 18 20 22 24 26 27 28 29 29 29 29 29 30 32 31 29
4 3 3 7 4 1 1 6 2 33 31 29 33 31 26 22 17 12 9 5 3 2 2 2 3 5 9 11 13 14 14 15 17 18 21 22 24 26 28 29 31 32 30 27 27 27 27 30 30
5 3 4 5 3 3 3 9 4 27 27 27 32 31 26 22 18 13 8 5 3 2 2 4 5 7 9 11 12 12 13 15 17 19 21 22 24 25 27 29 31 31 30 27 25 25 25 27 29
2 4 7 4 6 1 7 7 9 22 15 21 28 32 28 23 19 14 10 7 3 1 2 4 7 9 10 11 13 14 16 17 18 19 19 20 21 24 27 29 31 30 28 25 24 25 26 27 27
8 9 8 5 5 6 7 9 6 11 21 31 35 32 32 27 23 18 13 8 4 1 2 5 8 11 14 16 18 18 17 17 17 17 18 19 21 24 27 30 31 29 27 22 21 23 25 24 23
6 9 5 8 4 3 1 5 6 7 6 19 28 32 32 32 28 22 16 9 4 1 3 7 10 13 16 17 17 15 14 14 14 16 17 18 20 22 26 29 30 28 24 24 21 21 21 24 19
13 6 8 6 4 5 1 8 4 2 4 8 22 28 32 31 25 21 16 10 4 2 6 9 12 14 15 16 16 16 15 15 16 17 17 16 17 19 23 27 29 28 25 21 19 18 17 17 21
14 10 9 5 4 3 2 3 1 3 1 6 14 22 31 31 27 21 14 7 4 4 6 9 12 14 14 14 14 15 15 15 15 15 15 16 17 19 21 24 27 29 28 23 18 16 18 17 17
1 4 5 5 3 4 6 6 4 5 4 4 10 19 27 28 24 19 13 10 7 6 7 10 13 14 13 13 13 14 13 14 14 15 15 17 18 18 20 22 25 27 28 26 20 17 16 16 15
3 4 1 2 0 7 6 4 7 6 6 11 18 25 30 29 26 22 17 14 12 9 9 11 12 11 10 10 11 12 12 13 14 15 17 17 18 19 20 22 24 26 28 27 22 17 16 17 17
9 10 5 6 4 4 2 5 4 3 1 15 17 26 29 28 25 21 19 16 16 12 10 10 9 8 8 8 9 9 10 12 14 15 16 17 18 18 20 20 21 22 24 26 24 21 18 16 16
7 7 7 5 3 2 3 2 2 5 5 14 21 23 28 31 27 23 21 21 16 11 9 7 6 6 5 6 8 9 10 11 13 14 15 15 16 17 18 19 21 21 21 22 23 24 24 19 16
7 7 4 2 4 5 4 3 4 5 8 7 10 22 29 27 27 25 23 20 15 11 8 7 6 5 5 6 7 8 9 11 12 12 13 15 15 16 16 17 19 20 20 20 20 20 21 23 24
2 3 3 4 4 4 2 5 6 9 9 15 17 31 31 30 29 28 24 20 16 13 9 7 5 4 3 3 5 7 8 10 11 11 12 14 16 16 16 17 18 19 20 22 22 20 19 20 22
2 5 5 4 4 2 4 7 4 8 13 18 22 30 30 29 28 27 25 21 18 13 9 7 5 4 2 1 3 6 8 9 11 11 13 14 16 16 16 16 16 17 20 21 22 23 23 22 22
Wind_Direction
345 336 331 97 52 63 292 272 225 130 100 132 114 130 117 37 58 158 139 167 175 150 144 122 125 129 118 111 110 108 98 21 305 308 298 280 277 275 270 265 266 264 261 258 261 254 261 261 258
336 344 69 106 88 60 291 259 167 164 122 107 95 95 70 79 66 126 127 149 174 159 137 131 130 131 125 121 125 126 106 348 342 333 311 300 292 281 277 272 269 263 265 267 262 265 262 265 265
332 350 114 90 101 168 202 214 84 131 127 86 96 76 67 67 97 143 145 155 155 147 139 142 139 133 125 117 83 52 25 3 347 334 322 313 308 299 287 277 268 263 260 258 263 266 269 268 267
339 67 67 86 214 245 198 151 149 147 114 101 126 80 91 142 166 157 146 142 148 140 146 144 134 129 124 106 99 8 8 350 337 331 324 322 313 304 296 288 279 270 262 259 259 264 265 268 273
2 64 55 40 279 278 283 150 146 169 128 144 149 133 84 148 169 150 144 148 159 154 160 155 152 158 157 166 344 358 355 341 334 333 328 320 311 304 297 291 285 277 273 269 264 259 257 262 266
72 78 53 328 273 309 2 134 120 105 113 124 106 99 107 147 160 153 163 174 166 154 144 146 163 167 161 332 334 333 326 320 319 322 323 316 312 306 298 291 285 282 280 276 271 269 266 259 256
111 85 192 246 269 356 175 78 79 118 122 63 130 88 147 155 165 165 172 169 157 136 110 94 268 293 274 283 302 302 305 310 315 317 315 310 302 294 289 289 285 282 278 278 279 277 271 267 263
94 92 97 261 316 300 348 81 92 80 70 136 134 163 176 169 172 168 162 155 148 142 167 270 276 274 273 271 283 295 300 305 308 309 307 303 297 293 287 282 280 282 278 275 274 275 275 273 268
156 60 354 261 205 194 140 139 58 84 121 69 58 159 163 161 165 165 159 152 143 149 213 239 261 274 286 301 303 306 307 307 309 309 308 305 300 298 294 291 286 281 277 275 272 270 268 270 269
92 106 217 197 228 261 321 128 143 135 112 71 96 129 151 159 164 164 157 151 145 156 176 157 278 309 329 329 329 318 318 317 315 314 311 309 307 303 299 296 293 290 287 282 277 272 269 267 267
346 158 228 227 261 336 35 60 108 131 160 170 143 147 157 161 163 162 156 161 164 145 35 8 358 348 334 336 333 328 326 324 323 321 319 319 316 311 306 301 296 293 290 287 284 279 274 268 266
102 34 145 318 329 339 85 105 81 244 211 164 154 156 160 163 163 161 160 151 129 121 26 30 13 354 346 346 334 332 332 332 330 331 329 326 323 321 319 316 312 307 301 297 293 288 284 279 272
64 323 337 287 293 262 259 81 170 84 140 154 157 161 164 164 161 160 166 156 148 141 48 30 20 6 3 353 350 343 339 337 336 332 331 330 330 328 326 323 319 316 311 306 301 296 288 282 279
307 285 289 287 248 222 176 207 30 143 148 150 161 166 167 166 163 161 164 176 195 182 50 34 18 14 6 356 351 345 341 339 336 335 337 338 338 337 336 333 330 326 321 315 308 301 296 290 283
300 320 328 281 256 223 170 116 225 163 162 157 159 161 164 164 165 173 173 189 183 154 70 35 21 14 5 359 352 348 344 343 341 343 343 343 343 342 339 336 333 330 325 320 315 309 301 293 289
16 47 342 286 31 338 165 246 179 168 166 164 164 164 164 165 175 174 172 174 155 152 75 32 22 11 2 357 350 345 343 343 342 344 345 343 344 343 342 340 337 334 330 325 318 312 308 305 296
3 230 222 310 0 58 112 272 157 176 171 164 170 169 168 165 164 159 154 148 131 108 50 8 17 8 5 358 349 345 341 339 340 342 343 346 348 348 347 345 340 336 334 330 324 318 314 313 312
204 221 259 247 269 61 217 264 157 187 179 169 173 172 173 172 166 164 166 158 125 76 11 341 350 359 359 354 347 342 340 340 344 344 347 349 350 352 351 348 344 339 337 336 331 328 325 324 323
268 230 237 242 261 251 257 250 228 191 184 167 171 178 178 175 168 169 171 164 143 127 313 324 335 345 350 353 349 346 347 347 344 345 345 347 351 354 355 354 350 346 344 344 345 339 333 333 335
248 257 258 268 226 171 257 256 254 175 203 184 179 181 182 173 169 170 175 173 162 229 323 328 327 345 352 352 349 347 345 344 343 344 343 348 354 357 359 358 355 351 350 348 347 342 335 335 341
238 225 222 233 294 223 266 280 237 221 184 180 189 190 187 180 173 175 176 176 173 254 327 329 341 347 348 343 341 339 337 336 338 343 346 351 353 357 2 2 359 357 353 349 345 345 338 333 342
262 220 217 219 147 222 72 278 266 185 137 175 176 186 184 180 179 178 178 177 181 296 329 337 337 331 329 330 332 337 340 343 348 349 348 352 352 358 3 6 3 2 357 345 344 347 340 337 333
258 218 216 181 179 108 233 259 285 84 232 194 186 177 180 182 181 179 183 195 206 269 303 317 315 315 322 325 333 341 343 347 349 349 351 352 355 357 2 5 8 9 0 355 344 349 342 336 325
353 82 44 41 87 267 191 181 226 191 213 147 161 168 175 177 180 184 192 203 220 239 280 298 305 309 320 328 334 339 343 345 348 351 354 358 356 358 2 5 10 12 10 3 351 351 353 343 331
151 90 286 302 266 244 202 209 258 303 291 182 162 162 178 184 187 193 199 207 218 233 264 289 289 298 309 324 335 341 346 350 353 354 356 355 355 358 3 6 9 12 15 13 1 360 5 1 349
197 172 188 229 208 249 345 238 254 342 55 150 164 167 170 180 198 201 210 211 219 229 262 270 280 297 317 329 335 341 347 351 355 357 358 357 358 1 7 7 9 12 13 18 16 7 6 13 8
189 194 190 129 23 55 225 281 350 102 78 133 143 163 182 194 202 212 211 217 220 235 256 270 278 297 309 333 342 344 350 353 357 1 2 1 1 6 9 9 11 13 16 16 22 23 15 10 12
187 155 104 349 155 239 273 253 229 195 175 165 167 184 195 203 209 214 216 219 221 234 252 262 274 286 307 326 334 340 351 0 5 5 6 10 10 9 10 10 13 16 19 18 18 25 26 23 24
127 151 79 117 133 168 213 260 222 203 174 182 198 195 203 212 216 217 218 218 224 234 249 256 253 259 279 314 341 357 1 8 9 10 13 14 13 12 12 15 17 18 24 24 22 20 22 21 17
195 178 148 140 182 160 162 263 284 192 185 185 204 208 217 223 225 222 220 220 224 231 238 232 225 218 225 329 4 11 6 10 13 19 23 21 18 16 14 14 14 18 26 25 23 22 21 24 25
Height
1495 1494 1493 1493 1507 1512 1515 1503 1492 1495 1497 1498 1498 1500 1507 1511 1511 1523 1519 1521 1521 1522 1522 1522 1521 1521 1523 1523 1523 1524 1525 1526 1525 1524 1523 1524 1522 1521 1520 1520 1521 1520 1519 1519 1518 1518 1519 1517 1517
1494 1493 1493 1493 1514 1524 1515 1496 1495 1492 1496 1498 1500 1504 1507 1513 1515 1517 1520 1520 1521 1522 1522 1521 1521 1522 1523 1524 1524 1523 1524 1525 1523 1522 1522 1522 1520 1520 1519 1518 1519 1518 1518 1518 1517 1516 1515 1515 1515
1493 1492 1493 1502 1521 1520 1512 1494 1494 1496 1496 1497 1503 1506 1511 1517 1518 1519 1521 1522 1523 1523 1522 1521 1521 1522 1524 1524 1524 1524 1523 1522 1521 1521 1521 1520 1519 1519 1518 1517 1516 1515 1515 1516 1514 1513 1512 1512 1513
1492 1493 1497 1508 1508 1500 1496 1495 1494 1497 1500 1501 1504 1511 1516 1518 1520 1520 1522 1523 1524 1523 1523 1523 1523 1523 1524 1524 1526 1525 1522 1519 1521 1520 1520 1518 1518 1518 1517 1515 1515 1513 1514 1512 1511 1510 1510 1509 1510
1493 1493 1508 1509 1506 1496 1490 1492 1495 1497 1499 1501 1503 1513 1516 1519 1520 1521 1522 1523 1525 1525 1524 1524 1524 1523 1524 1525 1525 1523 1520 1520 1521 1519 1518 1518 1517 1516 1516 1514 1514 1514 1512 1510 1508 1506 1505 1506 1506
1493 1495 1515 1518 1504 1494 1491 1491 1494 1496 1497 1500 1502 1507 1518 1519 1521 1521 1523 1524 1525 1525 1525 1525 1526 1524 1523 1522 1522 1522 1522 1522 1520 1519 1516 1517 1516 1515 1515 1514 1512 1511 1509 1507 1505 1504 1503 1501 1501
1494 1502 1512 1507 1504 1498 1494 1492 1493 1497 1499 1500 1502 1508 1517 1519 1521 1521 1522 1524 1525 1526 1526 1525 1525 1524 1523 1521 1521 1523 1523 1521 1519 1517 1516 1515 1515 1514 1512 1510 1508 1508 1506 1505 1503 1501 1499 1498 1498
1493 1497 1506 1506 1508 1501 1494 1495 1497 1497 1500 1502 1502 1508 1515 1516 1519 1521 1523 1523 1524 1525 1526 1526 1526 1526 1524 1522 1523 1524 1523 1520 1518 1517 1516 1514 1513 1511 1508 1506 1505 1504 1502 1500 1499 1498 1496 1495 1494
1493 1507 1512 1502 1501 1498 1495 1496 1498 1499 1501 1502 1503 1503 1506 1513 1518 1520 1522 1523 1524 1525 1526 1526 1527 1527 1525 1523 1522 1523 1522 1520 1518 1516 1514 1512 1509 1507 1504 1502 1500 1499 1497 1495 1493 1492 1490 1490 1490
1494 1508 1502 1495 1496 1496 1494 1494 1496 1499 1501 1505 1504 1506 1511 1516 1519 1520 1521 1523 1525 1526 1527 1527 1527 1526 1525 1523 1521 1521 1519 1517 1515 1513 1511 1509 1506 1503 1501 1498 1496 1494 1492 1490 1488 1486 1485 1484 1483
1495 1502 1494 1492 1493 1492 1493 1495 1496 1497 1502 1502 1501 1507 1513 1517 1519 1520 1521 1524 1525 1527 1527 1527 1526 1525 1523 1521 1519 1518 1517 1515 1513 1511 1509 1506 1503 1500 1498 1495 1492 1489 1487 1484 1481 1480 1478 1477 1475
1496 1495 1494 1492 1492 1492 1492 1494 1496 1497 1497 1499 1504 1506 1511 1516 1518 1521 1523 1525 1526 1527 1527 1526 1524 1523 1521 1519 1518 1516 1514 1512 1510 1508 1506 1503 1499 1496 1493 1490 1486 1483 1480 1477 1474 1472 1469 1468 1468
1496 1495 1494 1493 1492 1492 1493 1494 1494 1496 1497 1500 1505 1509 1512 1516 1517 1521 1522 1522 1524 1524 1524 1524 1523 1522 1521 1519 1517 1515 1512 1509 1507 1505 1503 1500 1496 1493 1490 1486 1482 1478 1474 1471 1468 1465 1462 1460 1459
1496 1495 1493 1492 1491 1492 1494 1495 1495 1501 1500 1502 1505 1508 1512 1514 1516 1519 1522 1522 1523 1522 1522 1522 1521 1520 1519 1517 1515 1514 1512 1509 1506 1503 1500 1496 1494 1490 1486 1481 1477 1472 1467 1464 1460 1457 1454 1451 1450
1495 1496 1490 1487 1487 1487 1489 1498 1496 1496 1499 1502 1506 1509 1513 1516 1516 1518 1520 1521 1521 1521 1520 1521 1520 1519 1518 1516 1515 1513 1510 1507 1504 1500 1496 1493 1490 1487 1483 1478 1474 1469 1464 1459 1453 1450 1448 1445 1441
1497 1498 1503 1487 1486 1485 1486 1496 1489 1494 1495 1500 1504 1507 1511 1513 1514 1517 1518 1520 1520 1521 1521 1521 1520 1518 1516 1515 1513 1511 1508 1505 1502 1498 1494 1490 1487 1484 1480 1476 1471 1466 1461 1455 1450 1444 1439 1437 1435
1504 1509 1505 1496 1485 1487 1490 1492 1490 1492 1494 1498 1501 1504 1508 1509 1512 1515 1516 1517 1517 1518 1519 1519 1518 1517 1515 1513 1511 1509 1506 1503 1500 1496 1492 1488 1484 1481 1478 1473 1468 1462 1457 1452 1445 1441 1436 1432 1429
1506 1504 1502 1500 1489 1486 1488 1490 1489 1492 1493 1494 1498 1502 1504 1507 1510 1513 1514 1515 1516 1516 1517 1517 1516 1515 1514 1512 1509 1506 1503 1501 1497 1494 1490 1486 1484 1479 1476 1471 1466 1459 1453 1449 1443 1438 1435 1430 1426
1495 1499 1501 1495 1488 1488 1488 1489 1485 1487 1493 1496 1499 1500 1502 1505 1509 1511 1513 1514 1514 1514 1515 1516 1515 1514 1512 1510 1508 1505 1501 1498 1495 1493 1490 1486 1482 1478 1475 1469 1463 1457 1451 1446 1442 1437 1434 1430 1426
1497 1499 1498 1490 1485 1489 1488 1486 1481 1483 1482 1484 1490 1496 1499 1503 1506 1510 1511 1513 1513 1513 1513 1513 1513 1511 1509 1507 1505 1503 1500 1496 1494 1491 1489 1485 1481 1477 1473 1467 1461 1455 1450 1445 1441 1436 1432 1429 1427
1493 1496 1493 1491 1483 1482 1484 1488 1480 1478 1482 1487 1491 1494 1497 1498 1502 1506 1509 1511 1510 1510 1510 1512 1511 1509 1507 1506 1505 1503 1500 1497 1495 1492 1488 1483 1480 1477 1473 1466 1461 1454 1449 1444 1439 1436 1433 1428 1427
1493 1484 1483 1485 1491 1501 1483 1492 1481 1477 1483 1486 1489 1492 1495 1499 1503 1504 1507 1508 1507 1508 1508 1508 1509 1509 1507 1505 1504 1500 1498 1495 1491 1489 1487 1484 1481 1477 1472 1467 1461 1454 1448 1444 1440 1437 1433 1430 1426
1479 1478 1480 1481 1488 1490 1489 1495 1482 1483 1485 1484 1487 1490 1493 1496 1500 1504 1506 1507 1507 1508 1508 1506 1507 1507 1506 1505 1501 1499 1496 1495 1491 1489 1485 1484 1481 1476 1471 1467 1460 1453 1448 1443 1439 1435 1432 1429 1426
1476 1476 1482 1489 1494 1504 1488 1490 1480 1483 1478 1482 1486 1491 1495 1498 1500 1503 1505 1505 1505 1506 1506 1506 1505 1506 1505 1503 1499 1497 1495 1494 1491 1488 1485 1482 1480 1475 1471 1466 1460 1454 1449 1443 1439 1435 1431 1428 1425
1478 1486 1503 1509 1510 1492 1480 1487 1474 1477 1472 1473 1480 1486 1492 1497 1500 1502 1501 1502 1504 1504 1505 1505 1505 1504 1503 1500 1497 1496 1495 1493 1489 1487 1483 1482 1479 1474 1469 1464 1459 1453 1449 1444 1440 1435 1430 1427 1424
1475 1479 1496 1493 1501 1490 1479 1483 1477 1477 1473 1476 1480 1483 1488 1493 1499 1499 1499 1500 1501 1502 1503 1503 1503 1502 1500 1498 1497 1496 1494 1492 1489 1486 1483 1481 1478 1473 1468 1465 1460 1454 1450 1445 1440 1436 1431 1426 1423
1468 1474 1468 1484 1492 1503 1488 1480 1479 1477 1479 1479 1481 1486 1489 1488 1492 1497 1497 1497 1498 1499 1500 1500 1500 1499 1499 1496 1495 1495 1493 1491 1488 1485 1484 1481 1478 1473 1469 1466 1460 1455 1451 1448 1442 1437 1433 1427 1422
1455 1460 1478 1488 1491 1492 1490 1482 1488 1480 1479 1482 1483 1483 1486 1488 1489 1492 1493 1493 1496 1498 1499 1499 1499 1498 1497 1496 1495 1494 1492 1490 1487 1485 1484 1482 1478 1474 1470 1467 1461 1456 1452 1449 1444 1439 1435 1430 1424
1459 1463 1465 1470 1479 1489 1508 1495 1472 1469 1471 1475 1476 1478 1481 1483 1483 1487 1490 1492 1494 1496 1498 1497 1498 1497 1496 1495 1494 1493 1492 1490 1487 1485 1484 1482 1479 1474 1471 1467 1462 1457 1453 1450 1445 1441 1435 1430 1427
1450 1454 1456 1476 1475 1490 1506 1489 1466 1463 1465 1469 1473 1474 1478 1480 1481 1484 1486 1489 1491 1494 1495 1495 1495 1495 1494 1494 1493 1492 1492 1491 1489 1486 1484 1482 1479 1476 1472 1468 1464 1459 1455 1452 1447 1442 1437 1431 1426